Tracking 18852 objects as of 24-Nov-2017
HD Live streaming from Space Station
objects crossing your sky now

FENGYUN 1C DEB

Track FENGYUN 1C DEB now!
10-day predictions


NORAD ID: 36729
Int'l Code: 1999-025EBB
Perigee: 839.6 km
Apogee: 907.5 km
Inclination: 98.8 °
Period: 102.3 minutes
Semi major axis: 7244 km
RCS: 0.006 m2 (small)
Launch date: May 10, 1999
Source: People's Republic of China (PRC)
Launch site: Taiyaun Space Center, China (TSC)

Note: This is SATELLITE DEBRIS
aabbcc
Your satellite tracking list
Your tracking list is empty




NASA's NSSDC Master Catalog

Two Line Element Set (TLE):
1 36729U 99025EBB 17325.92023428  .00000187  00000-0  13431-3 0  9991
2 36729  98.8235   9.1679 0046883 299.0211  60.6265 14.07938909460587
Source of the keplerian elements: AFSPC